Вернуться в каталог

FENGYUN 1C DEB

LostPO
NORAD 36165·DEBRIS·🇨🇳 China

Запущен May 10, 1999 с Taiyuan Satellite Launch Center

Loading…

Ближайшие Пролёты (ближайшие 24 часа)

TLE

УстаревшееSource: Space-Track

Эпоха: Jan 12, 2011, 16:04 UTC

1 36165U 99025DSN 11012.67006549  .00001336  00000-0  93657-3 0  9994
2 36165  98.0085 183.4237 0204325 328.0288  30.8547 13.90233081161115

Отслеживайте FENGYUN 1C DEB в реальном времени с AllMySat

Download on the App Store